, AK

(GMT )
Selawik

Weather History for PASK - April, 2013

Change the Weather History Date:

Thursday, April 25, 2013

  Actual Average Record
Temperature  
Mean Temperature 12 °F -  
Max Temperature 24 °F 26 °F 42 °F (2014)
Min Temperature 1 °F 12 °F -7 °F (1999)
Degree Days  
Heating Degree Days 52    
Moisture  
Dew Point 8 °F    
Average Humidity 77    
Maximum Humidity 100    
Minimum Humidity 53    
Precipitation  
Precipitation 0.00 in - - ()
Sea Level Pressure  
Sea Level Pressure 30.33 in    
Wind  
Wind Speed 9 mph (West)    
Max Wind Speed 17 mph    
Max Gust Speed 23 mph    
Visibility 10 miles    
Events      
Averages and records for this station are not official NWS values.
T = Trace of Precipitation, MM = Missing Value Source: NWS Daily Summary

Daily Weather History Graph

Daily Weather History Graph

Search for Another Location

Airport or City:

Trip Planner

Search our weather history database for the weather conditions in past years. The results will help you decide how hot, cold, wet, or windy it might be!

Date:

Astronomy

Apr. 25, 2013 Rise Set
Actual Time 6:14 AM AKDT 11:04 PM AKDT
Civil Twilight 4:58 AM AKDT 12:22 AM AKDT
Nautical Twilight 3:10 AM AKDT 2:05 AM AKDT
Astronomical Twilight Sun does not rise Sun does not rise
Moon 11:54 PM AKDT (4/25) 6:05 AM AKDT (4/25)
Length of Visible Light 19h 24m
Length of Day
16h 50m
Full, 100% of the Moon is Illuminated
Apr 25
Full
May 2
Last Quarter
May 9
New
May 17
First Quarter
May 24
Full

Hourly Weather History & Observations

Time (AKDT) Temp. Windchill Dew Point Humidity Pressure Visibility Wind Dir Wind Speed Gust Speed Precip Events Conditions
12:16 AM 24.8 °F 16.9 °F 15.8 °F 69% 30.38 in 10.0 mi NE 6.9 mph - N/A   Clear
12:36 AM 24.8 °F - 15.8 °F 69% 30.38 in 10.0 mi Calm Calm - N/A   Clear
12:56 AM 23.0 °F 13.9 °F 12.2 °F 63% 30.39 in 10.0 mi ENE 8.1 mph - N/A   Clear
1:16 AM 19.4 °F 12.8 °F 8.6 °F 63% 30.38 in 10.0 mi NNE 4.6 mph - N/A   Clear
1:36 AM 19.4 °F 7.2 °F 6.8 °F 58% 30.39 in 10.0 mi NNE 11.5 mph - N/A   Clear
1:56 AM 19.4 °F 6.6 °F 6.8 °F 58% 30.39 in 10.0 mi NE 12.7 mph - N/A   Clear
2:16 AM 17.6 °F 7.3 °F 8.6 °F 68% 30.39 in 10.0 mi East 8.1 mph - N/A   Clear
2:36 AM 19.4 °F 9.5 °F 10.4 °F 68% 30.41 in 10.0 mi NE 8.1 mph - N/A   Clear
2:56 AM 17.6 °F 6.4 °F 6.8 °F 63% 30.40 in 10.0 mi NE 9.2 mph - N/A   Clear
3:16 AM 17.6 °F 10.7 °F 6.8 °F 63% 30.40 in 10.0 mi East 4.6 mph - N/A   Clear
3:36 AM 15.8 °F - 6.8 °F 68% 30.40 in 10.0 mi Calm Calm - N/A   Clear
3:56 AM 17.6 °F - 8.6 °F 68% 30.40 in 10.0 mi Calm Calm - N/A   Clear
4:16 AM 12.2 °F 4.3 °F -0.4 °F 57% 30.40 in 10.0 mi SW 4.6 mph - N/A   Clear
4:36 AM 15.8 °F 5.1 °F 6.8 °F 68% 30.41 in 10.0 mi North 8.1 mph - N/A   Clear
4:56 AM 15.8 °F 6.1 °F 1.4 °F 53% 30.40 in 10.0 mi WSW 6.9 mph - N/A   Clear
5:16 AM 15.8 °F 10.2 °F 6.8 °F 68% 30.40 in 10.0 mi West 3.5 mph - N/A   Clear
5:36 AM 8.6 °F -1.3 °F -0.4 °F 67% 30.40 in 10.0 mi NW 5.8 mph - N/A   Clear
5:56 AM 5.0 °F -2.1 °F -2.2 °F 72% 30.41 in 10.0 mi SW 3.5 mph - N/A   Clear
6:16 AM 5.0 °F -4.1 °F 5.0 °F 100% 30.41 in 10.0 mi WSW 4.6 mph - N/A   Clear
6:36 AM 5.0 °F -4.1 °F 1.4 °F 85% 30.41 in 10.0 mi WNW 4.6 mph - N/A   Clear
6:56 AM 1.4 °F -9.9 °F -7.6 °F 66% 30.41 in 10.0 mi WSW 5.8 mph - N/A   Clear
7:16 AM 1.4 °F -11.3 °F 1.4 °F 100% 30.41 in 10.0 mi WSW 6.9 mph - N/A   Clear
7:36 AM 1.4 °F -9.9 °F -4.0 °F 78% 30.41 in 10.0 mi SW 5.8 mph - N/A   Clear
7:56 AM 3.2 °F -12.2 °F 1.4 °F 92% 30.40 in 10.0 mi West 10.4 mph - N/A   Clear
8:16 AM 3.2 °F -11.3 °F 1.4 °F 92% 30.40 in 10.0 mi West 9.2 mph - N/A   Clear
8:36 AM 5.0 °F -9.1 °F 1.4 °F 85% 30.40 in 10.0 mi WSW 9.2 mph - N/A   Clear
8:56 AM 3.2 °F -12.2 °F -0.4 °F 85% 30.39 in 10.0 mi West 10.4 mph - N/A   Clear
9:16 AM 3.2 °F -12.2 °F -0.4 °F 85% 30.39 in 10.0 mi West 10.4 mph - N/A   Clear
9:36 AM 3.2 °F -12.2 °F -0.4 °F 85% 30.39 in 10.0 mi WSW 10.4 mph - N/A   Clear
9:56 AM 3.2 °F -12.2 °F -0.4 °F 85% 30.38 in 10.0 mi West 10.4 mph - N/A   Clear
10:16 AM 5.0 °F -10.8 °F 1.4 °F 85% 30.38 in 10.0 mi WSW 11.5 mph - N/A   Clear
10:36 AM 6.8 °F -9.3 °F -0.4 °F 72% 30.38 in 10.0 mi WSW 12.7 mph - N/A   Clear
10:56 AM 6.8 °F -9.3 °F 1.4 °F 79% 30.38 in 10.0 mi WSW 12.7 mph - N/A   Clear
11:16 AM 8.6 °F -6.3 °F 1.4 °F 73% 30.38 in 10.0 mi WSW 11.5 mph - N/A   Clear
11:36 AM 8.6 °F -6.3 °F 3.2 °F 79% 30.39 in 10.0 mi WSW 11.5 mph - N/A   Clear
11:56 AM 10.4 °F -5.4 °F 3.2 °F 73% 30.37 in 10.0 mi West 13.8 mph - N/A   Clear
12:16 PM 10.4 °F -4.8 °F 3.2 °F 73% 30.37 in 10.0 mi West 12.7 mph 18.4 mph N/A   Clear
12:36 PM 12.2 °F -0.2 °F 3.2 °F 67% 30.37 in 10.0 mi West 9.2 mph - N/A   Clear
12:56 PM 12.2 °F -1.8 °F 6.8 °F 79% 30.36 in 10.0 mi West 11.5 mph - N/A   Clear
1:16 PM 12.2 °F -2.5 °F 5.0 °F 73% 30.36 in 10.0 mi WSW 12.7 mph - N/A   Clear
1:36 PM 12.2 °F -1.8 °F 6.8 °F 79% 30.36 in 10.0 mi WSW 11.5 mph - N/A   Clear
1:56 PM 12.2 °F -1.8 °F 6.8 °F 79% 30.35 in 10.0 mi WSW 11.5 mph - N/A   Clear
2:16 PM 14.0 °F -1.4 °F 6.8 °F 73% 30.34 in 10.0 mi West 15.0 mph - N/A   Clear
2:36 PM 14.0 °F -0.8 °F 8.6 °F 79% 30.34 in 10.0 mi West 13.8 mph - N/A   Clear
2:56 PM 15.8 °F 2.7 °F 10.4 °F 79% 30.33 in 10.0 mi WSW 11.5 mph - N/A   Clear
3:16 PM 15.8 °F 0.9 °F 8.6 °F 73% 30.32 in 10.0 mi West 15.0 mph - N/A   Clear
3:36 PM 15.8 °F 0.3 °F 10.4 °F 79% 30.32 in 10.0 mi West 16.1 mph 23.0 mph N/A   Clear
3:56 PM 17.6 °F 3.7 °F 10.4 °F 73% 30.32 in 10.0 mi WSW 13.8 mph - N/A   Clear
4:16 PM 17.6 °F 2.7 °F 10.4 °F 73% 30.31 in 10.0 mi West 16.1 mph - N/A   Clear
4:36 PM 17.6 °F 2.2 °F 10.4 °F 73% 30.30 in 10.0 mi West 17.3 mph 21.9 mph N/A   Clear
4:56 PM 17.6 °F 4.3 °F 12.2 °F 79% 30.30 in 10.0 mi WSW 12.7 mph - N/A   Clear
5:16 PM 17.6 °F 3.2 °F 12.2 °F 79% 30.29 in 10.0 mi West 15.0 mph - N/A   Clear
5:36 PM 19.4 °F 5.0 °F 12.2 °F 74% 30.28 in 10.0 mi West 16.1 mph - N/A   Clear
5:56 PM 19.4 °F 6.6 °F 12.2 °F 74% 30.27 in 10.0 mi WSW 12.7 mph - N/A   Clear
6:16 PM 19.4 °F 6.0 °F 14.0 °F 80% 30.26 in 10.0 mi West 13.8 mph - N/A   Clear
6:36 PM 19.4 °F 6.6 °F 14.0 °F 80% 30.26 in 10.0 mi WSW 12.7 mph - N/A   Clear
6:56 PM 19.4 °F 6.6 °F 14.0 °F 80% 30.25 in 10.0 mi WSW 12.7 mph - N/A   Clear
7:16 PM 19.4 °F 5.5 °F 15.8 °F 86% 30.24 in 10.0 mi West 15.0 mph - N/A   Clear
7:36 PM 21.2 °F 8.9 °F 15.8 °F 80% 30.22 in 10.0 mi WSW 12.7 mph - N/A   Clear
7:56 PM 19.4 °F 7.2 °F 14.0 °F 80% 30.21 in 10.0 mi WSW 11.5 mph - N/A   Clear
8:16 PM 19.4 °F 5.5 °F 14.0 °F 80% 30.23 in 10.0 mi West 15.0 mph - N/A   Clear
8:36 PM 19.4 °F 6.0 °F 14.0 °F 80% 30.21 in 10.0 mi West 13.8 mph 21.9 mph N/A   Clear
8:56 PM 19.4 °F 6.0 °F 14.0 °F 80% 30.19 in 10.0 mi West 13.8 mph 18.4 mph N/A   Clear
9:16 PM 19.4 °F 6.6 °F 14.0 °F 80% 30.18 in 10.0 mi West 12.7 mph - N/A   Clear
9:36 PM 19.4 °F 7.2 °F 14.0 °F 80% 30.18 in 10.0 mi West 11.5 mph - N/A   Clear
9:56 PM 19.4 °F 7.2 °F 14.0 °F 80% 30.15 in 10.0 mi WSW 11.5 mph - N/A   Clear
10:16 PM 17.6 °F 4.3 °F 15.8 °F 93% 30.14 in 10.0 mi West 12.7 mph - N/A   Clear
10:36 PM 17.6 °F 4.3 °F 15.8 °F 93% 30.16 in 10.0 mi West 12.7 mph - N/A   Clear
10:56 PM 19.4 °F 6.0 °F 15.8 °F 86% 30.15 in 10.0 mi WSW 13.8 mph - N/A   Clear
11:16 PM 19.4 °F 6.0 °F 15.8 °F 86% 30.15 in 6.0 mi West 13.8 mph - N/A   Scattered Clouds
11:36 PM 19.4 °F 5.0 °F 15.8 °F 86% 30.15 in 4.0 mi West 16.1 mph 23.0 mph N/A   Mostly Cloudy
11:56 PM 19.4 °F 6.0 °F 15.8 °F 86% 30.13 in 2.5 mi West 13.8 mph - N/A   Overcast